User: anonymous   Login
Location: Unspecified
(0.0000°N, 0.0000°E)
Time: 13:01:02
(UTC+00:00)
Language:

DSP F14 - Orbit

View from above orbital plane
View from above orbital plane
View from above satellite
View from above satellite

Ground track
Ground track

The orbit data is extracted from the following two-line orbital elements,

1 20066U 89046A   21015.36917685 -.00000182  00000-0  00000-0 0  9997
2 20066  14.3378 355.5983 0002734  18.4674 176.2622  0.98819696  6273
Epoch (UTC): 15 January 2021 08:51:36
Eccentricity: 0.0002734
inclination: 14.3378°
perigee height: 36186 km
apogee height: 36210 km
right ascension of ascending node: 355.5983°
argument of perigee: 18.4674°
revolutions per day: 0.98819696
mean anomaly at epoch: 176.2622°
orbit number at epoch: 627

The dashed part of the orbit path shows where the satellite is in the earth's shadow,  

DLR